カタログに戻る

THOR ABLESTAR R/B

運用中LEO
NORAD 118·ROCKET BODY·🇺🇸 United States

打ち上げ Jun 29, 1961 から Cape Canaveral Space Force Station

Loading…

次のパス (今後24時間)

TLE

最新Source: Space-Track

元期: Sep 9, 2026, 21:58 UTC

1 00118U 61015C   26252.91589072  .00000040  00000-0  74812-4 0  9991
2 00118  66.7628 209.1811 0086319 215.9905 143.5349 14.02758554328022

AllMySatでTHOR ABLESTAR R/Bをリアルタイム追跡

Download on the App Store